Saint Martin Island, Guadeloupe

10:47 PM AST on May 23, 2018 (GMT -0400)
Saint Martin Island

Weather History for 78866 - November, 2013

Change the Weather History Date:

Thursday, November 14, 2013

  Actual Average Record
Temperature  
Mean Temperature 82 °F -  
Max Temperature 87 °F 83 °F - ()
Min Temperature 78 °F 74 °F - ()
Cooling Degree Days 18    
Growing Degree Days 32 (Base 50)    
Moisture  
Dew Point 73 °F    
Average Humidity 73    
Maximum Humidity 83    
Minimum Humidity 57    
Precipitation  
Precipitation 0.03 in 0.14 in - ()
Sea Level Pressure  
Sea Level Pressure 29.97 in    
Wind  
Wind Speed 7 mph ()    
Max Wind Speed 12 mph    
Max Gust Speed -    
Visibility 7.1 miles    
Events Rain    
T = Trace of Precipitation, MM = Missing Value Source: Averaged Metar Reports

Daily Weather History Graph

Daily Weather History Graph

Search for Another Location

Airport or City:

Astronomy

Nov. 14, 2013 Rise Set
Actual Time 6:17 AM AST 5:35 PM AST
Civil Twilight 5:55 AM AST 5:58 PM AST
Nautical Twilight 5:28 AM AST 6:24 PM AST
Astronomical Twilight 5:02 AM AST 6:51 PM AST
Moon 3:34 PM AST (11/14) 3:32 AM AST (11/14)
Length of Visible Light 12h 03m
Length of Day
11h 17m
Waxing Gibbous, 91% of the Moon is Illuminated
Nov 14
Waxing Gibbous
Nov 17
Full
Nov 25
Last Quarter
Dec 2
New
Dec 9
First Quarter

Hourly Weather History & Observations

Time (AST) Temp. Heat Index Dew Point Humidity Pressure Visibility Wind Dir Wind Speed Gust Speed Precip Events Conditions
12:00 AM 82.4 °F 88.2 °F 73.4 °F 74% 29.98 in 6.2 mi East 9.2 mph - N/A   Scattered Clouds
1:00 AM 80.6 °F 85.4 °F 73.4 °F 79% 29.98 in 6.2 mi East 8.1 mph - N/A   Scattered Clouds
2:00 AM 81 °F - 73 °F 70% 29.96 in 16 mi ENE 9.2 mph - -   Partly Cloudy
2:00 AM 80.6 °F 85.4 °F 73.4 °F 79% 29.95 in 6.2 mi ENE 9.2 mph - N/A   Partly Cloudy
3:00 AM 80.6 °F 85.4 °F 73.4 °F 79% 29.95 in 6.2 mi ENE 9.2 mph - N/A   Partly Cloudy
4:00 AM 80.6 °F 85.4 °F 73.4 °F 79% 29.95 in 6.2 mi ENE 5.8 mph - N/A   Mostly Cloudy
5:00 AM 81 °F - 73 °F 71% 29.96 in 9 mi East 5.8 mph - - Rain Light Rain Showers
5:00 AM 80.6 °F 85.4 °F 73.4 °F 79% 29.95 in 6.2 mi East 5.8 mph - N/A Rain Light Rain Showers
6:00 AM 80.6 °F 85.4 °F 73.4 °F 79% 29.95 in 6.2 mi ENE 3.5 mph - N/A   Scattered Clouds
7:00 AM 78.8 °F - 73.4 °F 83% 29.98 in 4.3 mi East 3.5 mph - N/A   Scattered Clouds
8:00 AM 82 °F - 75 °F 73% 30.01 in 9 mi NE 5.8 mph - - Rain Light Rain Showers
8:00 AM 82.4 °F 89.5 °F 75.2 °F 79% 30.01 in 6.2 mi NE 5.8 mph - N/A   Partly Cloudy
9:00 AM 84.2 °F 90.9 °F 73.4 °F 70% 30.04 in 6.2 mi NE 6.9 mph - N/A   Partly Cloudy
10:00 AM 82.4 °F 89.5 °F 75.2 °F 79% 30.04 in 6.2 mi ENE 8.1 mph - N/A   Partly Cloudy
11:00 AM 85 °F - 73 °F 61% 30.02 in 19 mi ENE 9.2 mph - -   Partly Cloudy
11:00 AM 84.2 °F 90.9 °F 73.4 °F 70% 30.01 in 6.2 mi ENE 9.2 mph - N/A   Partly Cloudy
12:00 PM 86.0 °F 93.4 °F 73.4 °F 66% 29.98 in 6.2 mi East 9.2 mph - N/A   Partly Cloudy
1:00 PM 86.0 °F 93.4 °F 73.4 °F 66% 29.95 in 6.2 mi East 6.9 mph - N/A   Partly Cloudy
2:00 PM 86 °F - 73 °F 57% 29.95 in 28 mi East 11.5 mph - -   Partly Cloudy
2:00 PM 86.0 °F 93.4 °F 73.4 °F 66% 29.95 in 6.2 mi East 10.4 mph - N/A   Partly Cloudy
3:00 PM 86.0 °F 91.8 °F 71.6 °F 62% 29.92 in 6.2 mi ENE 10.4 mph - N/A   Partly Cloudy
4:00 PM 84.2 °F 90.9 °F 73.4 °F 70% 29.92 in 6.2 mi East 8.1 mph - N/A   Partly Cloudy
5:00 PM 83 °F - 74 °F 66% 29.94 in 22 mi East 9.2 mph - -   Partly Cloudy
5:00 PM 82.4 °F 88.2 °F 73.4 °F 74% 29.92 in 6.2 mi East 9.2 mph - N/A Rain Light Rain Showers
6:00 PM 80.6 °F 85.4 °F 73.4 °F 79% 29.95 in 6.2 mi East 9.2 mph - N/A   Partly Cloudy
7:00 PM 80.6 °F 85.4 °F 73.4 °F 79% 29.95 in 6.2 mi NE 5.8 mph - N/A   Mostly Cloudy
8:00 PM 82 °F - 73 °F 69% 29.98 in 25 mi East 9.2 mph - -   Mostly Cloudy
8:00 PM 82.4 °F 88.2 °F 73.4 °F 74% 29.98 in 6.2 mi East 9.2 mph - N/A   Mostly Cloudy
9:00 PM 82.4 °F 88.2 °F 73.4 °F 74% 29.98 in 6.2 mi East 8.1 mph - N/A   Mostly Cloudy
10:00 PM 82.4 °F 88.2 °F 73.4 °F 74% 29.98 in 6.2 mi East 8.1 mph - N/A   Scattered Clouds
11:00 PM 82 °F - 74 °F 71% 29.99 in 25 mi East 5.8 mph - -   Partly Cloudy
11:00 PM 82.4 °F 88.2 °F 73.4 °F 74% 29.98 in 6.2 mi East 5.8 mph - N/A   Scattered Clouds